Change the Weather History Date:

Monday, October 10, 2011

  Actual Average Record
Temperature  
Mean Temperature 86 °F -  
Max Temperature 94 °F 84 °F 97 °F (2012)
Min Temperature 77 °F 73 °F 72 °F (2013)
Cooling Degree Days 20    
Growing Degree Days 36 (Base 50)    
Moisture  
Dew Point 77 °F    
Average Humidity 76    
Maximum Humidity 94    
Minimum Humidity 57    
Precipitation  
Precipitation 0.00 in 0.51 in - ()
Sea Level Pressure  
Sea Level Pressure 29.80 in    
Wind  
Wind Speed 4 mph ()    
Max Wind Speed 12 mph    
Max Gust Speed -    
Visibility 3.7 miles    
Events      
Averages and records for this station are not official NWS values.
T = Trace of Precipitation, MM = Missing Value Source: Averaged Metar Reports

Daily Weather History Graph

Daily Weather History Graph

Search for Another Location

Airport or City:

Trip Planner

Search our weather history database for the weather conditions in past years. The results will help you decide how hot, cold, wet, or windy it might be!

Date:

Astronomy

Oct. 10, 2011 Rise Set
Actual Time 5:59 AM IST 5:53 PM IST
Civil Twilight 5:37 AM IST 6:14 PM IST
Nautical Twilight 5:13 AM IST 6:39 PM IST
Astronomical Twilight 4:48 AM IST 7:04 PM IST
Moon 4:39 PM IST (10/10) 4:24 AM IST (10/10)
Length of Visible Light 12h 37m
Length of Day
11h 54m
Waxing Gibbous, 97% of the Moon is Illuminated
Oct 10
Waxing Gibbous
Oct 12
Full
Oct 20
Last Quarter
Oct 27
New
Nov 2
First Quarter

Hourly Weather History & Observations

Time (IST) Temp. Heat Index Dew Point Humidity Pressure Visibility Wind Dir Wind Speed Gust Speed Precip Events Conditions
12:10 AM 82.4 °F 92.4 °F 78.8 °F 89% 29.80 in 3.7 mi Calm Calm - N/A   Partly Cloudy
12:40 AM 82.4 °F 92.4 °F 78.8 °F 89% 29.80 in 3.7 mi Calm Calm - N/A   Partly Cloudy
1:40 AM 80.6 °F 88.1 °F 78.8 °F 94% 29.80 in 2.5 mi Calm Calm - N/A   Haze
2:10 AM 80.6 °F 88.1 °F 78.8 °F 94% 29.77 in 2.2 mi West 4.6 mph - N/A   Haze
2:30 AM 81 °F - 79 °F 93% 29.81 in 2 mi Calm Calm - -   Scattered Clouds
3:10 AM 80.6 °F 88.1 °F 78.8 °F 94% 29.77 in 1.6 mi West 4.6 mph - N/A   Haze
3:40 AM 80.6 °F 88.1 °F 78.8 °F 94% 29.77 in 1.6 mi WSW 4.6 mph - N/A   Haze
4:10 AM 80.6 °F 87.1 °F 77.0 °F 89% 29.77 in 1.6 mi West 4.6 mph - N/A   Haze
4:40 AM 80.6 °F 87.1 °F 77.0 °F 89% 29.77 in 1.6 mi WSW 4.6 mph - N/A   Haze
5:10 AM 80.6 °F 87.1 °F 77.0 °F 89% 29.77 in 1.6 mi West 3.5 mph - N/A   Haze
5:30 AM 81 °F - 79 °F 90% 29.82 in 2 mi Calm Calm - -   Scattered Clouds
5:40 AM 78.8 °F - 77.0 °F 94% 29.80 in 1.6 mi West 3.5 mph - N/A   Haze
6:10 AM 78.8 °F - 77.0 °F 94% 29.80 in 1.6 mi West 3.5 mph - N/A   Haze
6:40 AM 78.8 °F - 75.2 °F 89% 29.80 in 1.7 mi West 4.6 mph - N/A   Haze
7:40 AM 80.6 °F 85.4 °F 73.4 °F 79% 29.83 in 3.7 mi WNW 2.3 mph - N/A   Partly Cloudy
8:10 AM 82.4 °F 88.2 °F 73.4 °F 74% 29.86 in 4.3 mi WNW 3.5 mph - N/A   Partly Cloudy
8:30 AM 84 °F - 72 °F 61% 29.88 in 6 mi Calm Calm - -   Scattered Clouds
8:40 AM 84.2 °F 90.9 °F 73.4 °F 70% 29.86 in 5.0 mi NW 2.3 mph - N/A   Partly Cloudy
9:10 AM 86.0 °F 95.1 °F 75.2 °F 70% 29.86 in 5.0 mi WNW 3.5 mph - N/A   Partly Cloudy
9:40 AM 87.8 °F 99.7 °F 77.0 °F 70% 29.86 in 5.0 mi WNW 3.5 mph - N/A   Partly Cloudy
10:10 AM 87.8 °F 95.6 °F 73.4 °F 62% 29.86 in 5.0 mi NNE 3.5 mph - N/A   Partly Cloudy
10:40 AM 89.6 °F 99.8 °F 75.2 °F 62% 29.83 in 5.0 mi NNW 4.6 mph - N/A   Partly Cloudy
11:10 AM 89.6 °F 98.2 °F 73.4 °F 59% 29.83 in 5.0 mi NW 3.5 mph - N/A   Scattered Clouds
11:30 AM 92 °F - 80 °F 60% 29.84 in 6 mi East 4.6 mph - -   Scattered Clouds
11:40 AM 91.4 °F 102.5 °F 75.2 °F 59% 29.80 in 5.0 mi SE 4.6 mph - N/A   Scattered Clouds
12:10 PM 91.4 °F 102.5 °F 75.2 °F 59% 29.80 in 5.0 mi ENE 8.1 mph - N/A   Scattered Clouds
12:40 PM 91.4 °F 102.5 °F 75.2 °F 59% 29.77 in 5.0 mi East 5.8 mph - N/A   Scattered Clouds
1:10 PM 91.4 °F 102.5 °F 75.2 °F 59% 29.77 in 5.0 mi North 4.6 mph - N/A   Scattered Clouds
1:40 PM 91.4 °F 102.5 °F 75.2 °F 59% 29.74 in 5.0 mi East 9.2 mph - N/A   Unknown
2:10 PM 91.4 °F 105.1 °F 77.0 °F 63% 29.74 in 5.0 mi ESE 10.4 mph - N/A   Unknown
2:30 PM 91 °F - 78 °F 57% 29.77 in 6 mi East 2.3 mph - -   Clear
2:40 PM 89.6 °F 99.8 °F 75.2 °F 62% 29.74 in 5.0 mi East 11.5 mph - N/A   Unknown
3:10 PM 89.6 °F 102.2 °F 77.0 °F 66% 29.74 in 5.0 mi East 10.4 mph - N/A   Unknown
3:40 PM 89.6 °F 102.2 °F 77.0 °F 66% 29.71 in 5.0 mi East 10.4 mph - N/A   Unknown
4:10 PM 87.8 °F 99.7 °F 77.0 °F 70% 29.71 in 4.3 mi East 9.2 mph - N/A   Partly Cloudy
4:40 PM 86.0 °F 96.9 °F 77.0 °F 74% 29.74 in 3.7 mi East 10.4 mph - N/A   Partly Cloudy
5:30 PM 87 °F - 79 °F 72% 29.75 in 6 mi East 2.3 mph - -   Scattered Clouds
5:40 PM 86.0 °F 99.3 °F 78.8 °F 79% 29.74 in 3.1 mi East 10.4 mph - N/A   Haze
6:10 PM 86.0 °F 96.9 °F 77.0 °F 74% 29.77 in 3.1 mi East 8.1 mph - N/A   Haze
6:40 PM 86.0 °F 99.3 °F 78.8 °F 79% 29.77 in 3.1 mi East 8.1 mph - N/A   Haze
7:10 PM 86.0 °F 96.9 °F 77.0 °F 74% 29.80 in 3.1 mi SE 6.9 mph - N/A   Haze
7:40 PM 86.0 °F 96.9 °F 77.0 °F 74% 29.80 in 3.1 mi East 8.1 mph - N/A   Haze
8:10 PM 86.0 °F 96.9 °F 77.0 °F 74% 29.83 in 3.1 mi ESE 8.1 mph - N/A   Haze
8:30 PM 84 °F - 79 °F 80% 29.84 in 2 mi South 3.5 mph - -   Clear
8:40 PM 86.0 °F 96.9 °F 77.0 °F 74% 29.83 in 3.1 mi East 4.6 mph - N/A   Haze
9:10 PM 84.2 °F 94.1 °F 77.0 °F 79% 29.83 in 3.7 mi ESE 5.8 mph - N/A   Partly Cloudy
9:40 PM 84.2 °F 94.1 °F 77.0 °F 79% 29.86 in 3.7 mi ESE 5.8 mph - N/A   Partly Cloudy
10:10 PM 84.2 °F 94.1 °F 77.0 °F 79% 29.83 in 3.7 mi East 5.8 mph - N/A   Partly Cloudy
10:40 PM 84.2 °F 94.1 °F 77.0 °F 79% 29.83 in 3.7 mi East 5.8 mph - N/A   Partly Cloudy
11:10 PM 82.4 °F 90.9 °F 77.0 °F 84% 29.83 in 3.7 mi Variable 2.3 mph - N/A   Partly Cloudy
11:30 PM 82 °F - 78 °F 85% 29.85 in 2 mi Calm Calm - -   Clear
11:40 PM 82.4 °F 90.9 °F 77.0 °F 84% 29.83 in 3.7 mi ESE 3.5 mph - N/A   Partly Cloudy